Location: Ostrava
(49.8330°N, 18.2830°E)
Time: 01:23:43
(UTC+02:00)

Cosmos 1263 Rocket - Visible Passes

Search period start: 22 April 2015 00:00
Search period end: 02 May 2015 00:00
Orbit: 280 x 407 km, 82.9° (Epoch: 21 April)

Date Brightness Start Highest point End Pass type
(mag) Time Alt. Az. Time Alt. Az. Time Alt. Az.
22 Apr 2.6 21:53:00 26° NE 21:53:00 26° NE 21:54:20 10° NNE visible
23 Apr 2.4 22:15:28 38° NW 22:15:28 38° NW 22:17:26 10° N visible
24 Apr 2.9 21:06:07 16° E 21:06:07 16° E 21:07:35 10° NE visible
24 Apr 3.9 22:37:29 14° W 22:38:00 15° WNW 22:39:29 10° NNW visible
25 Apr 1.2 21:27:42 39° SE 21:28:11 48° E 21:30:33 10° NNE visible
26 Apr 2.1 21:48:48 20° SW 21:50:08 43° WNW 21:52:29 10° N visible
27 Apr 2.9 20:38:24 10° SE 20:39:54 15° E 20:41:27 10° NE visible
27 Apr 4.1 22:10:13 10° WSW 22:11:50 16° WNW 22:13:27 10° NNW visible
28 Apr 1.4 20:58:40 10° SSE 21:00:57 42° E 21:03:18 10° NNE visible
29 Apr 1.8 21:19:21 10° SSW 21:21:42 52° W 21:24:07 10° N visible
30 Apr 4.0 21:40:21 10° WSW 21:42:13 19° WNW 21:44:04 10° NNW visible
